User: anonymous
Location: Maiden_LMO
(35.5760°N, 81.2120°W)
Time: 11:27:36
(UTC-04:00)
Language:

ADEOS II - Orbit

View from above orbital plane
View from above orbital plane
View from above satellite
View from above satellite

Ground track
Ground track

The orbit data is extracted from the following two-line orbital elements,

1 27597U 02056A   14258.62878132  .00000233  00000-0  11283-3 0  3934
2 27597 098.2772 261.6853 0002030 081.0309 053.6948 14.26855738611994
Epoch (UTC): 15 September 2014 15:05:26
Eccentricity: 0.0002030
inclination: 98.2772°
perigee height: 801 km
apogee height: 804 km
right ascension of ascending node: 261.6853°
argument of perigee: 81.0309°
revolutions per day: 14.26855738
mean anomaly at epoch: 53.6948°
orbit number at epoch: 61199

The dashed part of the orbit path shows where the satellite is in the earth's shadow,  

DLR